| time (UTC) | temp F | wind direction | speed knots | gust knots | rain 1hr in | rain 24hr in | rain mn in | humidity % | barometer mb |
| 20260901070003 | 55 | 106 | 1.7 | 2.6 | 0.00 | 0.00 | 0.00 | 90 | 1016.4 |
| 20260901065403 | 55 | 89 | 1.7 | 2.6 | 0.00 | 0.00 | 0.00 | 90 | 1016.3 |
| 20260901064503 | 54 | 143 | 1.7 | 2.6 | 0.00 | 0.00 | 0.00 | 93 | 1016.4 |
| 20260901063818 | 54 | 166 | 2.6 | 3.5 | 0.00 | 0.00 | 0.00 | 94 | 1016.5 |
| 20260901062703 | 54 | 168 | 2.6 | 3.5 | 0.00 | 0.00 | 0.00 | 95 | 1016.3 |
| 20260901062017 | 54 | 169 | 1.7 | 3.5 | 0.00 | 0.00 | 0.00 | 95 | 1016.1 |
| 20260901061118 | 53 | 160 | 0.0 | 0.9 | 0.00 | 0.00 | 0.00 | 95 | 1016.4 |
| 20260901060004 | 52 | 360 | 0.9 | 2.6 | 0.00 | 0.00 | 0.00 | 94 | 1015.9 |
| 20260831203603 | 58 | 349 | 1.7 | 2.6 | 0.00 | 0.01 | 0.01 | 72 | 1015.1 |
| 20260831202703 | 59 | 45 | 1.7 | 1.7 | 0.00 | 0.01 | 0.01 | 71 | 1014.9 |
| 20260831201803 | 59 | 45 | 1.7 | 1.7 | 0.00 | 0.01 | 0.01 | 71 | 1014.9 |
| 20260831200903 | 59 | 342 | 1.7 | 1.7 | 0.00 | 0.01 | 0.01 | 71 | 1014.9 |
| 20260831200003 | 60 | 315 | 1.7 | 1.7 | 0.00 | 0.01 | 0.01 | 70 | 1014.5 |
| 20260831195618 | 60 | 315 | 1.7 | 1.7 | 0.00 | 0.01 | 0.01 | 70 | 1014.5 |
| 20260831194503 | 60 | 300 | 3.5 | 4.3 | 0.00 | 0.01 | 0.01 | 70 | 1014.8 |
| 20260831193603 | 60 | 317 | 3.5 | 4.3 | 0.00 | 0.01 | 0.01 | 70 | 1014.4 |
| 20260831192703 | 60 | 313 | 4.3 | 7.0 | 0.00 | 0.01 | 0.01 | 70 | 1014.6 |
| 20260831191803 | 61 | 268 | 2.6 | 3.5 | 0.00 | 0.01 | 0.01 | 70 | 1014.6 |
| 20260831190903 | 61 | 353 | 1.7 | 2.6 | 0.00 | 0.01 | 0.01 | 69 | 1014.2 |
| 20260831190003 | 61 | 332 | 3.5 | 3.5 | 0.00 | 0.12 | 0.01 | 68 | 1014.0 |
| 20260831185403 | 62 | 317 | 4.3 | 5.2 | 0.00 | 0.14 | 0.01 | 67 | 1014.2 |
| 20260831184503 | 62 | 300 | 5.2 | 6.1 | 0.00 | 0.14 | 0.01 | 65 | 1014.0 |
| 20260831183603 | 62 | 306 | 4.3 | 6.1 | 0.00 | 0.14 | 0.01 | 65 | 1014.1 |
| 20260831182703 | 63 | 330 | 2.6 | 3.5 | 0.00 | 0.14 | 0.01 | 64 | 1013.8 |
| 20260831181803 | 64 | 289 | 3.5 | 6.1 | 0.00 | 0.14 | 0.01 | 59 | 1013.8 |
| 20260831180903 | 64 | 329 | 5.2 | 7.0 | 0.00 | 0.14 | 0.01 | 58 | 1014.0 |
| 20260831180003 | 65 | 328 | 6.1 | 7.8 | 0.00 | 0.14 | 0.01 | 55 | 1013.7 |
| 20260831175617 | 65 | 321 | 5.2 | 7.0 | 0.00 | 0.14 | 0.01 | 54 | 1013.5 |
| 20260831174503 | 66 | 315 | 4.3 | 7.0 | 0.00 | 0.14 | 0.01 | 54 | 1013.6 |
| 20260831173603 | 65 | 329 | 5.2 | 7.8 | 0.00 | 0.14 | 0.01 | 53 | 1013.7 |
| 20260831172703 | 65 | 291 | 6.1 | 9.6 | 0.00 | 0.14 | 0.01 | 53 | 1013.6 |
| 20260831171803 | 65 | 301 | 6.1 | 9.6 | 0.00 | 0.14 | 0.01 | 52 | 1013.5 |
| 20260831171118 | 65 | 307 | 7.8 | 9.6 | 0.00 | 0.14 | 0.01 | 52 | 1013.1 |
| 20260831170218 | 66 | 321 | 7.8 | 10.4 | 0.00 | 0.14 | 0.01 | 50 | 1013.3 |
| 20260831165403 | 67 | 301 | 8.7 | 12.2 | 0.00 | 0.14 | 0.01 | 50 | 1013.5 |
| 20260831164503 | 67 | 296 | 8.7 | 13.0 | 0.00 | 0.14 | 0.01 | 51 | 1013.3 |
| 20260831163603 | 67 | 304 | 7.8 | 10.4 | 0.00 | 0.14 | 0.01 | 51 | 1013.3 |
| 20260831162703 | 68 | 327 | 7.8 | 11.3 | 0.00 | 0.14 | 0.01 | 53 | 1013.1 |
| 20260831161803 | 67 | 305 | 8.7 | 9.6 | 0.00 | 0.14 | 0.01 | 54 | 1013.1 |
| 20260831160903 | 67 | 328 | 7.8 | 9.6 | 0.00 | 0.14 | 0.01 | 52 | 1012.9 |
| 20260831160003 | 67 | 319 | 8.7 | 10.4 | 0.00 | 0.14 | 0.01 | 52 | 1012.9 |
| 20260831155403 | 67 | 314 | 7.8 | 9.6 | 0.00 | 0.14 | 0.01 | 51 | 1012.9 |
| 20260831154503 | 68 | 320 | 8.7 | 11.3 | 0.00 | 0.14 | 0.01 | 51 | 1012.6 |
| 20260831153603 | 68 | 279 | 9.6 | 13.0 | 0.00 | 0.14 | 0.01 | 50 | 1012.6 |
| 20260831152703 | 69 | 327 | 10.4 | 13.0 | 0.00 | 0.14 | 0.01 | 50 | 1012.4 |
| 20260831151803 | 69 | 283 | 7.8 | 11.3 | 0.00 | 0.14 | 0.01 | 51 | 1012.6 |
| 20260831150903 | 69 | 296 | 8.7 | 13.9 | 0.00 | 0.14 | 0.01 | 50 | 1012.3 |
| 20260831150003 | 69 | 312 | 7.8 | 10.4 | 0.00 | 0.14 | 0.01 | 51 | 1012.3 |
| 20260831145403 | 69 | 327 | 8.7 | 13.0 | 0.00 | 0.14 | 0.01 | 52 | 1012.2 |
| 20260831144503 | 69 | 311 | 8.7 | 9.6 | 0.00 | 0.14 | 0.01 | 56 | 1012.2 |
| 20260831143603 | 68 | 300 | 8.7 | 13.0 | 0.00 | 0.14 | 0.01 | 58 | 1011.9 |
| 20260831142703 | 68 | 327 | 7.8 | 13.0 | 0.00 | 0.14 | 0.01 | 61 | 1012.0 |
| 20260831141803 | 67 | 306 | 7.0 | 11.3 | 0.00 | 0.14 | 0.01 | 65 | 1011.9 |
| 20260831140903 | 67 | 301 | 8.7 | 12.2 | 0.00 | 0.14 | 0.01 | 66 | 1012.0 |
| 20260831140003 | 66 | 331 | 7.0 | 12.2 | 0.00 | 0.14 | 0.01 | 67 | 1012.0 |
| 20260831135403 | 65 | 323 | 8.7 | 12.2 | 0.00 | 0.14 | 0.01 | 64 | 1012.0 |
| 20260831134717 | 67 | 294 | 7.0 | 9.6 | 0.00 | 0.15 | 0.01 | 61 | 1012.2 |
| 20260831133603 | 70 | 319 | 6.1 | 7.8 | 0.00 | 0.15 | 0.01 | 59 | 1011.6 |
| 20260831132703 | 68 | 334 | 7.0 | 9.6 | 0.00 | 0.15 | 0.01 | 58 | 1011.6 |
| 20260831132017 | 68 | 315 | 7.0 | 9.6 | 0.00 | 0.15 | 0.01 | 57 | 1011.6 |
| 20260831130903 | 68 | 339 | 7.8 | 12.2 | 0.00 | 0.15 | 0.01 | 56 | 1011.6 |
| 20260831130003 | 69 | 319 | 7.8 | 9.6 | 0.00 | 0.15 | 0.01 | 55 | 1011.4 |
| 20260831125403 | 69 | 322 | 7.0 | 9.6 | 0.00 | 0.15 | 0.01 | 55 | 1011.2 |
| 20260831124503 | 69 | 357 | 6.1 | 7.0 | 0.00 | 0.15 | 0.01 | 59 | 1010.9 |
| 20260831123816 | 69 | 342 | 7.0 | 10.4 | 0.00 | 0.15 | 0.01 | 60 | 1011.0 |
| 20260831122703 | 69 | 330 | 8.7 | 13.0 | 0.00 | 0.15 | 0.01 | 57 | 1011.0 |
| 20260831121803 | 70 | 311 | 8.7 | 12.2 | 0.00 | 0.15 | 0.01 | 54 | 1010.6 |
| 20260831120903 | 70 | 312 | 6.1 | 8.7 | 0.00 | 0.15 | 0.01 | 60 | 1010.5 |
| 20260831120003 | 68 | 323 | 6.1 | 8.7 | 0.00 | 0.15 | 0.01 | 62 | 1010.5 |
| 20260831115403 | 69 | 315 | 7.8 | 9.6 | 0.00 | 0.15 | 0.01 | 62 | 1010.5 |
| 20260831114503 | 69 | 327 | 7.8 | 9.6 | 0.00 | 0.15 | 0.01 | 61 | 1010.4 |
| 20260831113603 | 70 | 320 | 6.1 | 10.4 | 0.00 | 0.15 | 0.01 | 60 | 1010.3 |
| 20260831112703 | 69 | 320 | 8.7 | 12.2 | 0.00 | 0.15 | 0.01 | 62 | 1010.0 |
| 20260831111803 | 69 | 323 | 7.0 | 9.6 | 0.00 | 0.17 | 0.01 | 61 | 1010.1 |
| 20260831110903 | 69 | 293 | 7.8 | 9.6 | 0.00 | 0.17 | 0.01 | 61 | 1009.8 |
| 20260831110003 | 68 | 310 | 8.7 | 10.4 | 0.00 | 0.22 | 0.01 | 62 | 1009.8 |
| 20260831105403 | 69 | 343 | 8.7 | 12.2 | 0.00 | 0.22 | 0.01 | 61 | 1009.6 |
| 20260831104503 | 69 | 326 | 7.0 | 9.6 | 0.00 | 0.22 | 0.01 | 63 | 1009.4 |
| 20260831103603 | 68 | 303 | 7.8 | 9.6 | 0.00 | 0.22 | 0.01 | 65 | 1009.6 |
| 20260831102703 | 68 | 332 | 7.8 | 9.6 | 0.00 | 0.22 | 0.01 | 66 | 1009.4 |
| 20260831101803 | 66 | 319 | 8.7 | 12.2 | 0.00 | 0.22 | 0.01 | 70 | 1009.2 |
| 20260831100903 | 66 | 317 | 6.1 | 8.7 | 0.00 | 0.22 | 0.01 | 68 | 1009.3 |
| 20260831100217 | 66 | 289 | 6.1 | 7.8 | 0.00 | 0.22 | 0.01 | 66 | 1008.9 |
| 20260831095403 | 67 | 297 | 6.1 | 7.8 | 0.00 | 0.22 | 0.01 | 65 | 1008.9 |
| 20260831094503 | 68 | 311 | 6.1 | 8.7 | 0.00 | 0.22 | 0.01 | 64 | 1008.5 |
| 20260831093603 | 68 | 349 | 7.0 | 8.7 | 0.00 | 0.22 | 0.01 | 63 | 1008.6 |
| 20260831092703 | 68 | 322 | 7.8 | 9.6 | 0.00 | 0.22 | 0.01 | 65 | 1008.2 |
| 20260831091803 | 67 | 316 | 7.0 | 8.7 | 0.00 | 0.22 | 0.01 | 66 | 1008.2 |
| 20260831091117 | 67 | 312 | 7.0 | 9.6 | 0.00 | 0.22 | 0.01 | 68 | 1008.1 |
| 20260831090003 | 66 | 300 | 6.1 | 7.8 | 0.00 | 0.22 | 0.01 | 69 | 1007.9 |
| 20260831085403 | 67 | 331 | 7.8 | 13.9 | 0.00 | 0.22 | 0.01 | 70 | 1007.6 |
| 20260831084503 | 66 | 302 | 7.8 | 13.9 | 0.00 | 0.22 | 0.01 | 70 | 1007.7 |
| 20260831083603 | 66 | 306 | 7.8 | 13.0 | 0.00 | 0.22 | 0.01 | 70 | 1007.6 |
| 20260831082703 | 66 | 307 | 7.8 | 9.6 | 0.00 | 0.22 | 0.01 | 71 | 1007.4 |
| 20260831082017 | 65 | 312 | 9.6 | 12.2 | 0.00 | 0.22 | 0.01 | 72 | 1007.3 |